Content
SEND FEEDBACK

Daily
Averages
Monthly
Summary
United States of America

GONVICK, MINNESOTA


Home > North America > United States > Minnesota
Elevation: 1450 feet     Latitude: 47 44N     Longitude: 095 30W

WEATHER
 
SELECT A DAY
Number of Records: 465,703;   Date Range: 1/1/95 - 12/26/14
 
SHARE

PRINT THIS DATA

[ ← Previous Day ]
WEATHER ALMANAC - JANUARY 31, 2013
[ Next Day → ]
[ °C ]   °F
Weather ElementAverageHighLow
Temperature-12.9 °F-7.6 °F (12:35 am)-29.2 °F (10:35 pm)
Dewpoint-19.5 °F-11.2 °F (12:35 am)-36.4 °F (10:35 pm)
Humidity72.6 %84 % (12:35 am)59 % (11:35 am)
Barometer30.07 in30.22 in (8:15 pm)29.83 in (12:35 am)
Wind Speed10.8 mph18.4 mph (2:10 am)
Wind Gust23 mph (3:15 am)
Weather ElementAverage
Visibility3.5 mi
Wind DirectionWSW (255.6 °)

Weather ElementTotal
Precipitation---
Heating Degree Days83.4 (Base 65)
Averaged from 66 records on January 31, 2013
WEATHER CONDITIONS BREAKOUT
WIND DIRECTION BREAKOUT
WEATHER BY HOUR - JANUARY 31, 2013
[ °C ]   °F
Local TimeTemperatureDewpointHumidityBarometerVisibilityWind DirectionWind SpeedGust SpeedPrecipitationEventsConditions
12:35 AM-7.6 °F-11.2 °F84 %29.83 in3.0 miNW (310°)11.5 mphSnowLight Snow
12:52 AM-7.6 °F-11.2 °F84 %29.84 in3.0 miNW (310°)12.7 mphSnowLight Snow
1:15 AM-7.6 °F-11.2 °F84 %29.84 in4.0 miNW (310°)11.5 mph17.3 mphHaze
1:41 AM-7.6 °F-11.2 °F84 %29.85 in2.5 miWNW (300°)16.1 mph20.7 mphOvercast
2:10 AM-7.6 °F-13.0 °F77 %29.86 in4.0 miNW (310°)18.4 mphHaze
2:15 AM-7.6 °F-13.0 °F77 %29.86 in4.0 miNW (310°)17.3 mph21.9 mphHaze
2:35 AM-7.6 °F-13.0 °F77 %29.87 in3.0 miNW (320°)12.7 mph18.4 mphSnowLight Snow
2:55 AM-7.6 °F-13.0 °F77 %29.87 in2.0 miNW (310°)16.1 mph20.7 mphSnowLight Snow
3:15 AM-9.4 °F-14.8 °F77 %29.87 in2.0 miNW (320°)16.1 mph23.0 mphSnowLight Snow
3:35 AM-9.4 °F-14.8 °F77 %29.88 in2.0 miNW (310°)15.0 mph19.6 mphSnowLight Snow
3:55 AM-9.4 °F-14.8 °F77 %29.88 in2.5 miNW (310°)15.0 mphSnowLight Snow
4:15 AM-9.4 °F-14.8 °F77 %29.90 in3.0 miNW (310°)12.7 mphSnowLight Snow
4:35 AM-9.4 °F-14.8 °F77 %29.90 in3.0 miNW (320°)11.5 mph19.6 mphSnowLight Snow
4:55 AM-9.4 °F-14.8 °F77 %29.91 in2.5 miNW (320°)15.0 mph18.4 mphSnowLight Snow
5:15 AM-9.4 °F-14.8 °F77 %29.92 in2.5 miNW (320°)12.7 mphSnowLight Snow
5:36 AM-9.4 °F-14.8 °F77 %29.93 in2.5 miNW (320°)12.7 mphSnowLight Snow
5:55 AM-9.4 °F-14.8 °F77 %29.94 in3.0 miNW (310°)13.8 mphSnowLight Snow
6:15 AM-9.4 °F-14.8 °F77 %29.95 in3.0 miNW (310°)12.7 mph20.7 mphSnowLight Snow
6:36 AM-9.4 °F-14.8 °F77 %29.95 in2.5 miNW (310°)13.8 mphSnowLight Snow
6:55 AM-9.4 °F-14.8 °F77 %29.97 in3.0 miNW (310°)15.0 mphSnowLight Snow
7:15 AM-11.2 °F-16.6 °F77 %29.98 in3.0 miNW (320°)17.3 mphSnowLight Snow
7:36 AM-11.2 °F-16.6 °F77 %29.99 in4.0 miNW (320°)12.7 mphHaze
7:55 AM-11.2 °F-16.6 °F77 %30.00 in4.0 miNW (310°)13.8 mphSnowLight Snow
8:15 AM-11.2 °F-16.6 °F77 %30.02 in2.0 miNW (310°)13.8 mphSnowLight Snow
8:35 AM-11.2 °F-16.6 °F77 %30.03 in2.5 miNW (320°)15.0 mphHaze
8:56 AM-11.2 °F-16.6 °F77 %30.04 in2.0 miNW (310°)15.0 mph21.9 mphHaze
9:20 AM-11.2 °F-16.6 °F77 %30.05 in3.0 miNW (320°)13.8 mph20.7 mphHaze
9:35 AM-11.2 °F-18.4 °F70 %30.06 in3.0 miNW (310°)12.7 mph20.7 mphHaze
9:54 AM-11.2 °F-16.6 °F77 %30.07 in2.5 miNW (310°)13.8 mphHaze
10:15 AM-11.2 °F-18.4 °F70 %30.09 in2.0 miNW (310°)16.1 mph23.0 mphHaze
10:35 AM-9.4 °F-16.6 °F71 %30.10 in1.8 miNW (310°)13.8 mph23.0 mphHaze
11:00 AM-9.4 °F-16.6 °F71 %30.11 in2.0 miNW (310°)16.1 mph23.0 mphHaze
11:15 AM-9.4 °F-18.4 °F65 %30.11 in2.0 miNW (310°)17.3 mph20.7 mphHaze
11:35 AM-7.6 °F-18.4 °F59 %30.12 in3.0 miNW (310°)12.7 mphHaze
12:15 PM-9.4 °F-16.6 °F71 %30.12 in1.2 miNW (310°)13.8 mph19.6 mphHaze
12:35 PM-9.4 °F-18.4 °F65 %30.13 in2.5 miWNW (300°)13.8 mph23.0 mphHaze
12:55 PM-9.4 °F-18.4 °F65 %30.13 in2.0 miWNW (300°)12.7 mphHaze
1:15 PM-9.4 °F-18.4 °F65 %30.13 in4.0 miWNW (300°)12.7 mph23.0 mphHaze
1:35 PM-9.4 °F-18.4 °F65 %30.14 in2.5 miWNW (300°)11.5 mph16.1 mphHaze
1:56 PM-7.6 °F-18.4 °F59 %30.14 in2.0 miWNW (300°)12.7 mph18.4 mphHaze
2:15 PM-9.4 °F-18.4 °F65 %30.15 in2.0 miWNW (300°)15.0 mph20.7 mphHaze
2:35 PM-9.4 °F-18.4 °F65 %30.16 in4.0 miWNW (300°)15.0 mph20.7 mphHaze
2:56 PM-9.4 °F-18.4 °F65 %30.16 in3.0 miWNW (290°)12.7 mph17.3 mphHaze
3:15 PM-9.4 °F-18.4 °F65 %30.17 in4.0 miWNW (290°)13.8 mph17.3 mphHaze
3:35 PM-9.4 °F-20.2 °F59 %30.18 in4.0 miWNW (290°)13.8 mph18.4 mphHaze
3:56 PM-9.4 °F-20.2 °F59 %30.19 in4.0 miWNW (300°)11.5 mph18.4 mphHaze
4:15 PM-11.2 °F-20.2 °F64 %30.19 in10.0 miWNW (290°)12.7 mph17.3 mphMostly Cloudy
4:35 PM-11.2 °F-20.2 °F64 %30.19 in1.8 miWNW (300°)10.4 mphHaze
4:56 PM-13.0 °F-20.2 °F70 %30.19 in2.0 miWNW (290°)8.1 mphHaze
5:15 PM-14.8 °F-20.2 °F77 %30.19 in2.0 miWNW (300°)8.1 mphHaze
5:35 PM-16.6 °F-22.0 °F76 %30.20 in3.0 miWNW (300°)8.1 mphHaze
5:55 PM-16.6 °F-23.8 °F70 %30.20 in7.0 miWNW (300°)6.9 mphScattered Clouds
6:15 PM-18.4 °F-23.8 °F76 %30.21 in10.0 miWNW (300°)5.8 mphScattered Clouds
6:35 PM-18.4 °F-25.6 °F70 %30.21 in10.0 miWNW (290°)5.8 mphScattered Clouds
7:15 PM-20.2 °F-25.6 °F76 %30.21 in10.0 miWNW (290°)4.6 mphClear
7:35 PM-20.2 °F-25.6 °F76 %30.21 in10.0 miCalmClear
8:15 PM-22.0 °F-27.4 °F76 %30.22 in3.0 miCalmHaze
8:35 PM-23.8 °F-29.2 °F76 %30.21 in3.0 miCalmHaze
8:56 PM-23.8 °F-29.2 °F76 %30.21 in2.5 miCalmSnowLight Snow
9:15 PM-25.6 °F-31.0 °F76 %30.21 in1.8 miCalmSnowLight Snow
9:35 PM-25.6 °F-32.8 °F69 %30.21 in1.0 miCalmSnowSnow
9:56 PM-25.6 °F-32.8 °F69 %30.21 in3.0 miCalmSnowLight Snow
10:15 PM-27.4 °F-34.6 °F69 %30.21 in4.0 miCalmSnowLight Snow
10:35 PM-29.2 °F-36.4 °F68 %30.21 in2.5 miCalmSnowLight Snow
11:15 PM-29.2 °F-36.4 °F68 %30.20 in7.0 miCalmSnowLight Snow
11:35 PM-29.2 °F-36.4 °F68 %30.20 in10.0 miCalmClear
Hourly data recorded from KFSE, located miles away from Gonvick, Minnesota







STORIES FROM OUR PARTNERS